Вернуться в каталог

STARLINK-5097

АктивенСвязьVLEO
NORAD 53995·PAYLOAD·🇺🇸 United States

Запущен Oct 5, 2022 с Vandenberg Space Force Base

Loading…

Ближайшие Пролёты (ближайшие 24 часа)

TLE

СвежийSource: CelesTrak SupGP

Эпоха: Sep 15, 2026, 02:27 UTC

1 53995C 22125AH  26258.10256944 -.00025696  00000+0 -75988-3 0  2584
2 53995  53.1589  77.1183 0001185  90.2105 285.6520 15.34374803    10

Отслеживайте STARLINK-5097 в реальном времени с AllMySat

Download on the App Store